, OR

(GMT )
Tillamook

Weather History for KTMK - November, 2012

Change the Weather History Date:

Monday, November 12, 2012

  Actual Average Record
Temperature  
Mean Temperature 54 °F -  
Max Temperature 57 °F - - ()
Min Temperature 50 °F - - ()
Degree Days  
Heating Degree Days 12    
Growing Degree Days 4 (Base 50)    
Moisture  
Dew Point 51 °F    
Average Humidity 91    
Maximum Humidity 100    
Minimum Humidity 72    
Precipitation  
Precipitation 0.38 in - - ()
Sea Level Pressure  
Sea Level Pressure 30.16 in    
Wind  
Wind Speed 10 mph (SSW)    
Max Wind Speed 24 mph    
Max Gust Speed 30 mph    
Visibility 8 miles    
Events Rain    
Averages and records for this station are not official NWS values.
T = Trace of Precipitation, MM = Missing Value Source: NWS Daily Summary

Daily Weather History Graph

Daily Weather History Graph

Search for Another Location

Airport or City:

Astronomy

Nov. 12, 2012 Rise Set
Actual Time 8:10 AM MST 5:47 PM MST
Civil Twilight 7:38 AM MST 6:19 PM MST
Nautical Twilight 7:03 AM MST 6:55 PM MST
Astronomical Twilight 6:28 AM MST 7:29 PM MST
Moon 6:40 AM MST (11/12) 4:58 PM MST (11/12)
Length of Visible Light 10h 40m
Length of Day
9h 36m
Waning Crescent, 2% of the Moon is Illuminated
Nov 12
Waning Crescent
Nov 13
New
Nov 20
First Quarter
Nov 28
Full
Dec 6
Last Quarter

Hourly Weather History & Observations

Time (MST) Temp. Dew Point Humidity Pressure Visibility Wind Dir Wind Speed Gust Speed Precip Events Conditions
12:15 AM 53.6 °F 48.2 °F 82% 30.10 in 10.0 mi SSE 18.4 mph 25.3 mph N/A   Overcast
12:35 AM 53.6 °F 48.2 °F 82% 30.10 in 7.0 mi SSE 17.3 mph 28.8 mph 0.01 in Rain Rain
12:55 AM 51.8 °F 48.2 °F 88% 30.10 in 7.0 mi SSE 17.3 mph 26.5 mph 0.02 in Rain Rain
1:15 AM 53.6 °F 50.0 °F 88% 30.10 in 10.0 mi South 16.1 mph 21.9 mph 0.02 in Rain Rain
1:35 AM 53.6 °F 50.0 °F 88% 30.09 in 7.0 mi South 18.4 mph 23.0 mph 0.06 in Rain Rain
1:55 AM 53.6 °F 50.0 °F 88% 30.09 in 5.0 mi South 9.2 mph 12.7 mph 0.13 in Rain Rain
2:15 AM 53.6 °F 50.0 °F 88% 30.09 in 7.0 mi SSE 12.7 mph 18.4 mph 0.03 in Rain Light Rain
2:35 AM 53.6 °F 50.0 °F 88% 30.08 in 10.0 mi South 15.0 mph 21.9 mph 0.05 in Rain Light Rain
2:55 AM 53.6 °F 50.0 °F 88% 30.08 in 10.0 mi SSE 17.3 mph 27.6 mph 0.06 in Rain Light Rain
3:15 AM 55.4 °F 50.0 °F 82% 30.08 in 10.0 mi SSE 23.0 mph - N/A Rain Light Rain
3:35 AM 55.4 °F 50.0 °F 82% 30.08 in 10.0 mi SSE 17.3 mph 26.5 mph N/A   Overcast
3:55 AM 53.6 °F 50.0 °F 88% 30.10 in 7.0 mi South 13.8 mph 17.3 mph 0.01 in Rain Rain
4:15 AM 53.6 °F 50.0 °F 88% 30.08 in 10.0 mi SSE 15.0 mph 23.0 mph 0.02 in Rain Rain
4:35 AM 55.4 °F 51.8 °F 88% 30.08 in 10.0 mi SSE 15.0 mph 24.2 mph 0.02 in   Light Drizzle
4:55 AM 55.4 °F 50.0 °F 82% 30.08 in 10.0 mi South 18.4 mph 26.5 mph 0.02 in   Light Drizzle
5:15 AM 55.4 °F 50.0 °F 82% 30.08 in 10.0 mi South 24.2 mph 29.9 mph N/A Rain Light Rain
5:35 AM 55.4 °F 50.0 °F 82% 30.09 in 10.0 mi South 23.0 mph 29.9 mph N/A Rain Light Rain
5:55 AM 53.6 °F 50.0 °F 88% 30.10 in 10.0 mi SSW 17.3 mph 28.8 mph N/A Rain Light Rain
6:15 AM 53.6 °F 50.0 °F 88% 30.10 in 7.0 mi SSW 15.0 mph 24.2 mph 0.01 in Rain Rain
6:35 AM 53.6 °F 51.8 °F 94% 30.11 in 4.0 mi South 4.6 mph - 0.05 in Rain Light Rain
6:55 AM 53.6 °F 51.8 °F 94% 30.11 in 4.0 mi SE 3.5 mph - 0.07 in   Drizzle
7:15 AM 53.6 °F 51.8 °F 94% 30.11 in 10.0 mi South 4.6 mph - N/A   Light Drizzle
7:35 AM 55.4 °F 51.8 °F 88% 30.10 in 10.0 mi South 17.3 mph 23.0 mph N/A   Overcast
7:55 AM 53.6 °F 51.8 °F 94% 30.12 in 4.0 mi SSW 12.7 mph 23.0 mph 0.01 in Rain Rain
8:15 AM 53.6 °F 51.8 °F 94% 30.13 in 5.0 mi SW 11.5 mph 18.4 mph 0.01 in   Light Drizzle
8:55 AM 53.6 °F 51.8 °F 94% 30.14 in 4.0 mi WSW 3.5 mph - 0.02 in   Drizzle
9:15 AM 53.6 °F 53.6 °F 100% 30.15 in 7.0 mi Calm Calm - N/A   Overcast
9:35 AM 53.6 °F 53.6 °F 100% 30.15 in 2.5 mi Calm Calm - N/A Rain Rain
9:55 AM 53.6 °F 53.6 °F 100% 30.15 in 4.0 mi Calm Calm - 0.01 in   Overcast
10:15 AM 53.6 °F 53.6 °F 100% 30.16 in 1.2 mi Calm Calm - N/A   Light Drizzle
10:35 AM 53.6 °F 53.6 °F 100% 30.16 in 3.0 mi Calm Calm - N/A   Overcast
10:55 AM 53.6 °F 53.6 °F 100% 30.17 in 7.0 mi Calm Calm - 0.01 in   Overcast
11:15 AM 53.6 °F 53.6 °F 100% 30.17 in 10.0 mi Calm Calm - N/A   Overcast
11:35 AM 53.6 °F 53.6 °F 100% 30.18 in 10.0 mi Calm Calm - N/A   Overcast
11:55 AM 55.4 °F 55.4 °F 100% 30.18 in 10.0 mi Calm Calm - N/A   Overcast
12:15 PM 55.4 °F 55.4 °F 100% 30.18 in 10.0 mi Calm Calm - N/A   Scattered Clouds
12:35 PM 55.4 °F 53.6 °F 94% 30.18 in 10.0 mi Calm Calm - N/A   Scattered Clouds
12:55 PM 57.2 °F 51.8 °F 82% 30.18 in 10.0 mi Calm Calm - N/A   Overcast
1:15 PM 57.2 °F 51.8 °F 82% 30.17 in 10.0 mi SSW 3.5 mph - N/A   Overcast
1:35 PM 57.2 °F 50.0 °F 77% 30.17 in 10.0 mi SW 3.5 mph - N/A   Overcast
1:55 PM 57.2 °F 50.0 °F 77% 30.17 in 10.0 mi South 4.6 mph - N/A   Mostly Cloudy
2:15 PM 57.2 °F 48.2 °F 72% 30.18 in 10.0 mi WSW 4.6 mph - N/A   Overcast
2:35 PM 57.2 °F 50.0 °F 77% 30.18 in 7.0 mi WSW 4.6 mph - N/A   Overcast
2:55 PM 57.2 °F 50.0 °F 77% 30.18 in 7.0 mi WSW 3.5 mph - N/A   Mostly Cloudy
3:15 PM 57.2 °F 50.0 °F 77% 30.18 in 7.0 mi West 4.6 mph - N/A   Scattered Clouds
3:35 PM 57.2 °F 50.0 °F 77% 30.19 in 10.0 mi West 4.6 mph - N/A   Clear
3:55 PM 57.2 °F 51.8 °F 82% 30.19 in 10.0 mi West 3.5 mph - N/A   Mostly Cloudy
4:15 PM 55.4 °F 51.8 °F 88% 30.19 in 10.0 mi WSW 3.5 mph - N/A   Overcast
4:35 PM 55.4 °F 51.8 °F 88% 30.19 in 10.0 mi Calm Calm - N/A   Mostly Cloudy
4:55 PM 55.4 °F 50.0 °F 82% 30.19 in 10.0 mi Calm Calm - N/A   Overcast
5:15 PM 55.4 °F 51.8 °F 88% 30.19 in 10.0 mi Calm Calm - N/A   Overcast
5:35 PM 55.4 °F 51.8 °F 88% 30.20 in 10.0 mi Calm Calm - N/A   Overcast
5:55 PM 55.4 °F 51.8 °F 88% 30.21 in 10.0 mi SSW 4.6 mph - N/A   Overcast
6:15 PM 53.6 °F 51.8 °F 94% 30.21 in 10.0 mi South 3.5 mph - N/A   Overcast
6:35 PM 53.6 °F 51.8 °F 94% 30.21 in 10.0 mi Calm Calm - N/A   Overcast
6:55 PM 53.6 °F 51.8 °F 94% 30.21 in 7.0 mi Calm Calm - N/A Rain Rain
7:15 PM 53.6 °F 51.8 °F 94% 30.21 in 10.0 mi Calm Calm - N/A   Light Drizzle
7:35 PM 53.6 °F 51.8 °F 94% 30.22 in 7.0 mi Calm Calm - N/A Rain Heavy Rain
7:55 PM 53.6 °F 51.8 °F 94% 30.22 in 10.0 mi Calm Calm - 0.02 in   Overcast
8:15 PM 51.8 °F 51.8 °F 100% 30.22 in 10.0 mi Calm Calm - N/A   Mostly Cloudy
8:35 PM 51.8 °F 51.8 °F 100% 30.23 in 10.0 mi Calm Calm - N/A   Scattered Clouds
8:55 PM 51.8 °F 51.8 °F 100% 30.23 in 10.0 mi Calm Calm - N/A   Scattered Clouds
9:15 PM 51.8 °F 51.8 °F 100% 30.23 in 7.0 mi Calm Calm - N/A   Mostly Cloudy
9:35 PM 51.8 °F 51.8 °F 100% 30.24 in 7.0 mi Calm Calm - N/A   Overcast
9:55 PM 51.8 °F 51.8 °F 100% 30.24 in 10.0 mi Calm Calm - N/A   Overcast
10:15 PM 50.0 °F 50.0 °F 100% 30.24 in 10.0 mi Calm Calm - N/A   Mostly Cloudy
10:35 PM 50.0 °F 50.0 °F 100% 30.24 in 10.0 mi Calm Calm - N/A   Overcast
10:55 PM 50.0 °F 50.0 °F 100% 30.24 in 10.0 mi Calm Calm - N/A   Overcast
11:15 PM 50.0 °F 50.0 °F 100% 30.24 in 10.0 mi Calm Calm - N/A   Overcast
11:35 PM 50.0 °F 50.0 °F 100% 30.24 in 10.0 mi Calm Calm - N/A   Overcast
11:55 PM 50.0 °F 50.0 °F 100% 30.24 in 7.0 mi Calm Calm - N/A   Overcast